Time,TemperatureF,DewpointF,PressureIn,WindDirection,WindDirectionDegrees,WindSpeedMPH,WindSpeedGustMPH,Humidity,HourlyPrecipIn,Conditions,Clouds,dailyrainin,SoftwareType,DateUTC
2015-08-31 00:03:00,63.0,26.0,30.06,WNW,285,0.0,0.0,24,-99.99,,,-99.99,,2015-08-31 07:03:00,
2015-08-31 00:12:00,63.0,26.0,30.06,WNW,285,0.0,0.0,24,-99.99,,,-99.99,,2015-08-31 07:12:00,
2015-08-31 00:23:00,62.0,26.0,30.06,WNW,285,0.0,1.0,25,-99.99,,,-99.99,,2015-08-31 07:23:00,
2015-08-31 00:33:00,62.0,26.0,30.06,WNW,285,0.0,1.0,25,-99.99,,,-99.99,,2015-08-31 07:33:00,
2015-08-31 00:44:00,62.0,26.0,30.06,WNW,285,0.0,1.0,25,-99.99,,,-99.99,,2015-08-31 07:44:00,
2015-08-31 00:53:00,62.0,26.0,30.05,WNW,285,0.0,0.0,25,-99.99,,,-99.99,,2015-08-31 07:53:00,
2015-08-31 01:03:00,61.0,25.0,30.07,WNW,285,0.0,1.0,25,-99.99,,,-99.99,,2015-08-31 08:03:00,
2015-08-31 01:12:00,61.0,25.0,30.07,WNW,285,0.0,1.0,25,-99.99,,,-99.99,,2015-08-31 08:12:00,
2015-08-31 01:23:00,61.0,26.0,30.07,WNW,285,0.0,0.0,26,-99.99,,,-99.99,,2015-08-31 08:23:00,
2015-08-31 01:33:00,60.0,26.0,30.07,WNW,285,0.0,0.0,27,-99.99,,,-99.99,,2015-08-31 08:33:00,
2015-08-31 01:43:00,60.0,26.0,30.07,WNW,285,0.0,0.0,27,-99.99,,,-99.99,,2015-08-31 08:43:00,
2015-08-31 01:54:00,59.0,26.0,30.07,WNW,285,0.0,0.0,28,-99.99,,,-99.99,,2015-08-31 08:54:00,
2015-08-31 02:02:00,59.0,26.0,30.07,WNW,285,0.0,1.0,28,-99.99,,,-99.99,,2015-08-31 09:02:00,
2015-08-31 02:12:00,59.0,26.0,30.07,WNW,285,0.0,1.0,28,-99.99,,,-99.99,,2015-08-31 09:12:00,
2015-08-31 02:23:00,59.0,27.0,30.06,WNW,285,0.0,2.0,29,-99.99,,,-99.99,,2015-08-31 09:23:00,
2015-08-31 02:36:00,58.0,26.0,30.07,WNW,285,0.0,-999.0,29,-99.99,,,-99.99,,2015-08-31 09:36:00,
2015-08-31 02:44:00,58.0,26.0,30.07,WNW,285,0.0,0.0,29,-99.99,,,-99.99,,2015-08-31 09:44:00,
2015-08-31 02:53:00,58.0,26.0,30.07,WNW,285,0.0,0.0,29,-99.99,,,-99.99,,2015-08-31 09:53:00,
2015-08-31 03:03:00,57.0,26.0,30.05,South,191,1.0,2.0,30,-99.99,,,-99.99,,2015-08-31 10:03:00,
2015-08-31 03:13:00,57.0,26.0,30.05,South,191,1.0,2.0,30,-99.99,,,-99.99,,2015-08-31 10:13:00,
2015-08-31 03:23:00,56.0,27.0,30.05,South,174,2.0,4.0,32,-99.99,,,-99.99,,2015-08-31 10:23:00,
2015-08-31 03:33:00,55.0,26.0,30.06,SSE,163,1.0,3.0,32,-99.99,,,-99.99,,2015-08-31 10:33:00,
2015-08-31 03:43:00,55.0,26.0,30.06,SSE,163,1.0,3.0,32,-99.99,,,-99.99,,2015-08-31 10:43:00,
2015-08-31 03:54:00,54.0,26.0,30.06,SSE,163,1.0,3.0,33,-99.99,,,-99.99,,2015-08-31 10:54:00,
2015-08-31 04:03:00,54.0,25.0,30.06,SSE,163,2.0,3.0,32,-99.99,,,-99.99,,2015-08-31 11:03:00,
2015-08-31 04:13:00,54.0,25.0,30.06,SSE,163,2.0,3.0,32,-99.99,,,-99.99,,2015-08-31 11:13:00,
2015-08-31 04:23:00,54.0,24.0,30.06,SSE,163,0.0,2.0,31,-99.99,,,-99.99,,2015-08-31 11:23:00,
2015-08-31 04:33:00,54.0,24.0,30.06,SSE,163,0.0,2.0,31,-99.99,,,-99.99,,2015-08-31 11:33:00,
2015-08-31 04:43:00,54.0,24.0,30.06,SSE,163,0.0,2.0,31,-99.99,,,-99.99,,2015-08-31 11:43:00,
2015-08-31 04:54:00,53.0,23.0,30.07,SSE,163,1.0,2.0,31,-99.99,,,-99.99,,2015-08-31 11:54:00,
2015-08-31 05:03:00,53.0,24.0,30.07,SSE,163,0.0,3.0,32,-99.99,,,-99.99,,2015-08-31 12:03:00,
2015-08-31 05:13:00,53.0,24.0,30.07,SSE,163,0.0,3.0,32,-99.99,,,-99.99,,2015-08-31 12:13:00,
2015-08-31 05:23:00,53.0,23.0,30.07,SSE,163,0.0,0.0,31,-99.99,,,-99.99,,2015-08-31 12:23:00,
2015-08-31 05:33:00,53.0,26.0,30.07,SSE,163,0.0,1.0,35,-99.99,,,-99.99,,2015-08-31 12:33:00,
2015-08-31 05:43:00,53.0,26.0,30.07,SSE,163,0.0,1.0,35,-99.99,,,-99.99,,2015-08-31 12:43:00,
2015-08-31 05:54:00,53.0,25.0,30.06,SSE,163,0.0,0.0,34,-99.99,,,-99.99,,2015-08-31 12:54:00,
2015-08-31 06:03:00,52.0,25.0,30.06,SSE,163,0.0,0.0,34,-99.99,,,-99.99,,2015-08-31 13:03:00,
2015-08-31 06:13:00,52.0,25.0,30.06,SSE,163,0.0,0.0,34,-99.99,,,-99.99,,2015-08-31 13:13:00,
2015-08-31 06:23:00,52.0,25.0,30.07,SSE,163,0.0,0.0,34,-99.99,,,-99.99,,2015-08-31 13:23:00,
2015-08-31 06:33:00,52.0,25.0,30.07,SSE,163,0.0,0.0,35,-99.99,,,-99.99,,2015-08-31 13:33:00,
2015-08-31 06:43:00,52.0,25.0,30.07,SSE,163,0.0,0.0,35,-99.99,,,-99.99,,2015-08-31 13:43:00,
2015-08-31 06:53:00,51.0,26.0,30.07,SSE,163,0.0,0.0,37,-99.99,,,-99.99,,2015-08-31 13:53:00,
2015-08-31 07:03:00,51.0,25.0,30.08,SSE,163,0.0,0.0,36,-99.99,,,-99.99,,2015-08-31 14:03:00,
2015-08-31 07:12:00,51.0,25.0,30.08,SSE,163,0.0,0.0,36,-99.99,,,-99.99,,2015-08-31 14:12:00,
2015-08-31 07:23:00,50.0,25.0,30.08,SSE,163,0.0,1.0,38,-99.99,,,-99.99,,2015-08-31 14:23:00,
2015-08-31 07:33:00,50.0,25.0,30.08,SSE,163,0.0,1.0,38,-99.99,,,-99.99,,2015-08-31 14:33:00,
2015-08-31 07:43:00,50.0,26.0,30.08,SSE,163,0.0,0.0,39,-99.99,,,-99.99,,2015-08-31 14:43:00,
2015-08-31 07:53:00,50.0,25.0,30.09,SSE,163,0.0,1.0,38,-99.99,,,-99.99,,2015-08-31 14:53:00,
2015-08-31 08:03:00,52.0,26.0,30.08,SSE,163,0.0,1.0,36,-99.99,,,-99.99,,2015-08-31 15:03:00,
2015-08-31 08:12:00,52.0,26.0,30.08,SSE,163,0.0,1.0,36,-99.99,,,-99.99,,2015-08-31 15:12:00,
2015-08-31 08:23:00,55.0,27.0,30.07,SSE,163,0.0,0.0,34,-99.99,,,-99.99,,2015-08-31 15:23:00,
2015-08-31 08:43:00,57.0,27.0,30.07,SSE,163,0.0,0.0,31,-99.99,,,-99.99,,2015-08-31 15:43:00,
2015-08-31 08:53:00,59.0,27.0,30.08,SSE,163,0.0,2.0,29,-99.99,,,-99.99,,2015-08-31 15:53:00,
2015-08-31 09:03:00,59.0,27.0,30.08,SSE,163,0.0,2.0,29,-99.99,,,-99.99,,2015-08-31 16:03:00,
2015-08-31 09:12:00,59.0,27.0,30.08,SSE,163,0.0,2.0,29,-99.99,,,-99.99,,2015-08-31 16:12:00,
2015-08-31 09:23:00,61.0,27.0,30.07,SSE,163,1.0,2.0,27,-99.99,,,-99.99,,2015-08-31 16:23:00,
2015-08-31 09:35:00,62.0,29.0,30.09,SSE,163,1.0,3.0,28,-99.99,,,-99.99,,2015-08-31 16:35:00,
2015-08-31 09:43:00,62.0,29.0,30.09,SSE,163,1.0,3.0,28,-99.99,,,-99.99,,2015-08-31 16:43:00,
2015-08-31 09:54:00,63.0,29.0,30.07,SSE,163,1.0,2.0,28,-99.99,,,-99.99,,2015-08-31 16:54:00,